Regional Weather Roundup
Issued by NWS

Home | Current Version | Previous Version | Graphics & Text | Print | Product List | Glossary Off
Versions: 1 2 3 4 5 6 7 8 9 10 11 12 13 14 15 16 17 18 19 20 21 22 23 24 25 26 27 28 29 30 31 32 33 34 35 36 37 38 39 40 41 42 43 44 45 46 47 48 49 50

000
ASUS43 KTOP 241659
RWRKS

WEATHER ROUNDUP FOR KANSAS
NATIONAL WEATHER SERVICE GOODLAND KS
1200 PM CDT WED MAY 24 2017

NOTE:  "FAIR" INDICATES FEW OR NO CLOUDS BELOW 12,000 FEET WITH NO
SIGNIFICANT WEATHER AND/OR OBSTRUCTIONS TO VISIBILITY.

KSZ001>006-013>018-027>032-041>047-241800-
NORTHWEST KANSAS

CITY           SKY/WX    TMP DP  RH WIND       PRES   REMARKS
GOODLAND       FAIR      60  41  49 S12       29.80F
HILL CITY      FAIR      59  40  49 CALM      29.81F
RUSSELL        PTSUNNY   58  42  55 N6        29.80F
$$

KSZ061>065-074>080-084>089-241800-
SOUTHWEST KANSAS

CITY           SKY/WX    TMP DP  RH WIND       PRES   REMARKS
DODGE CITY     FAIR      62  41  46 NE5       29.83F
ELKHART          N/A     66  39  37 S5          N/A
GARDEN CITY    FAIR      63  37  38 VRB5      29.82F
GREAT BEND       N/A     57  43  59 NW8       29.83F
LIBERAL        FAIR      63  42  46 VRB6      29.84F
$$

KSZ066>073-081>083-090>101-241800-
SOUTHEAST KANSAS

CITY           SKY/WX    TMP DP  RH WIND       PRES   REMARKS
CHANUTE        PTSUNNY   62  47  57 NW14G23   29.73F
COFFEYVILLE    PTSUNNY   63  50  62 NW9       29.75F
HUTCHINSON     CLOUDY    60  43  53 NW13      29.81F
MEDICINE LODGE   N/A     63  42  46 NW10G20   29.82F
NEWTON         LGT RAIN  60  45  57 NW12      29.80F
PARSONS        FAIR      63  47  55 NW15      29.75F
WICHITA INTL   PTSUNNY   60  43  53 NW14      29.80F
WICHITA JABRA  PTSUNNY   59  45  59 NW12G18   29.80F
WINFIELD       PTSUNNY   60  45  57 NW12      29.81F
$$

KSZ007>012-019>026-033>040-048>060-102>105-241800-
NORTHEAST KANSAS

CITY           SKY/WX    TMP DP  RH WIND       PRES   REMARKS
CONCORDIA      PTSUNNY   60  47  61 NW12      29.78F
EMPORIA        PTSUNNY   62  46  55 N14G21    29.75F
LAWRENCE       PTSUNNY   62  50  64 NW15G24   29.71F
MANHATTAN      FAIR      64  48  56 N8        29.76F
OLATHE IND     CLOUDY    59  49  69 N16G23    29.71F
OLATHE EXE     CLOUDY    58  49  72 N15       29.70F
SALINA         FAIR      64  46  52 NW12      29.80F
TOPEKA BILLARD FAIR      64  50  60 NW16G24   29.72F
TOPEKA FORBES  PTSUNNY   63  49  60 NW13      29.72F
$$




USA.gov is the U.S. government's official web portal to all federal, state and local government web resources and services.